sat.trackr.live / text

‹ back to catalog

STARLINK-36698

NORAD 67709 · 2026-025S

PAYLOAD ACTIVE UNKNOWN

§ Identity

Operator
Country
US
Launch date
2026-02-07
Launch site
AFWTR
Launch vehicle
Mass (kg)
RCS (m²)

Purposes: comms

External: N2YO · Heavens-Above · Gunter

§ Orbital elements

Epoch: 2026-09-19T14:38:43.479744Z

Period
93.91 min
Inclination
97.2850°
Eccentricity
0.0001310
Mean motion
15.33430293 rev/d
Perigee alt
464.7 km
Apogee alt
466.5 km
Semi-major
6,843.7 km
B*
4.7298e-4
RAAN
12.5899°
Arg perigee
94.4051°
Mean anomaly
265.7342°
Rev number
3,573

§ Raw data

STARLINK-366981 67709U 26025S   26262.61022546  .00015218  00000+0  47298-3 0  99972 67709  97.2850  12.5899 0001310  94.4051 265.7342 15.33430293 35734

JSON: /api/v1/satellites/67709 · /tle

For live sub-satellite position, see the globe view (requires WebGL).

§ Visibility from observer

Set your observer location to see the next 7 days of passes ≥ 10°. The values pass through the URL so the page stays shareable.

No JS? Fill the form by hand. The geolocation button needs JavaScript.